Location: Burzi?i
(45.0869°N, 16.0577°E)
Time: 04:23:32
(UTC+00:00)

FALCON 9 DEB - Pass Details

Date: 29 October 2020
Orbit: 378 x 394 km, 53.0° (Epoch: 01 December)

Event Time Altitude Azimuth Distance (km) Brightness Sun altitude
Rises 16:24:47 0° 250° (WSW) 2,299 9.2 -7.2°
Reaches altitude 10° 16:26:54 10° 256° (WSW) 1,441 7.6 -7.5°
Maximum altitude 16:30:03 49° 333° (NNW) 518 3.6 -8.1°
Drops below altitude 10° 16:33:11 10° 50° (NE) 1,436 5.2 -8.6°
Enters shadow 16:33:17 - 51° (NE) 1,478 5.3 -8.6°
